220  
ASUS45 KPSR 252210  
RWRAZ  
 
ARIZONA HOURLY REGIONAL WEATHER ROUNDUP  
NATIONAL WEATHER SERVICE PHOENIX AZ  
300 PM MST SAT JAN 25 2020  
 
NOTE: FAIR INDICATES FEW OR NO CLOUDS BELOW 12,000 FEET WITH NO  
SIGNIFICANT WEATHER AND/OR S TO VISIBILITY
.  
 
AZZ001>003-036-252300-  
NORTHWEST ARIZONA  
 
CITY SKY/WX TMP DP RH WIND PRES REMARKS
 
BULLHEAD CITY MOSUNNY 72 32 23 N17 30.02F  
KINGMAN SUNNY 64 29 26 N13 30.10S  

 
 
AZZ004>008-015-016-018-252300-  
NORTH CENTRAL ARIZONA  
 
CITY SKY/WX TMP DP RH WIND PRES REMARKS
 
GRAND CANYON SUNNY 52 24 33 VRB3 30.17S  
WILLIAMS SUNNY 54 14 20 NW9 30.17  
PRESCOTT SUNNY 61 20 20 N6 30.11S  
FLAGSTAFF SUNNY 50 19 29 CALM 30.16S  
PAYSON SUNNY 57 30 35 VRB5G13 30.12  
PAGE CLOUDY 39 33 79 SE6 30.19F WCI 35  

 
 
AZZ009>014-017-252300-  
NORTHEAST ARIZONA  
 
CITY SKY/WX TMP DP RH WIND PRES REMARKS
 
WINSLOW SUNNY 56 30 37 VRB5 30.14S  
SAINT JOHNS SUNNY 54 29 38 NW7 30.12R  
WINDOW ROCK SUNNY 52 24 33 NW12 30.14R  
SHOW LOW SUNNY 52 23 32 CALM 30.15R  

 
 
AZZ540-542>544-546-548-252300-  
GREATER PHOENIX AREA  
 
CITY SKY/WX TMP DP RH WIND PRES REMARKS
 
PHOENIX MOSUNNY 70 40 33 CALM 30.00F  
BUCKEYE SUNNY 68 43 40 CALM 30.03  
GLENDALE MOSUNNY 70 39 32 CALM 30.04S  
LUKE AFB SUNNY 69 41 35 CALM 30.00F  
DEER VALLEY SUNNY 68 38 33 S6 30.03S  
SCOTTSDALE SUNNY 70 37 29 W3 30.03F  
MESA-FALCON SUNNY 70 40 33 CALM 30.02F  
MESA-GATEWAY SUNNY 68 45 42 CALM 30.03F  
CHANDLER MOSUNNY 70 41 35 VRB6 30.02F  

 
 
AZZ539-553-252300-  
SOUTHWEST MARICOPA COUNTY AND PINAL COUNTY  
 
CITY SKY/WX TMP DP RH WIND PRES REMARKS
 
CASA GRANDE SUNNY 68 44 42 CALM 30.03F  
GILA BEND FAIR 71 41 34 CALM 30.00F  

 
 
AZZ503-504-507>509-252300-  
SOUTHEAST ARIZONA  
 
CITY SKY/WX TMP DP RH WIND PRES REMARKS
 
TUCSON SUNNY 71 39 31 NW7 30.05F  
DAVIS-MONTHAN SUNNY 70 42 37 W3 30.04  
RYAN FIELD SUNNY 72 41 33 W9 30.05F  
NOGALES MOSUNNY 67 36 31 NW8 30.06S  
SIERRA VISTA SUNNY 66 32 28 NW6 30.09S  
SAFFORD SUNNY 65 39 38 W9 30.03F  

 
 
AZZ532-252300-  
SOUTHWEST ARIZONA  
 
CITY SKY/WX TMP DP RH WIND PRES REMARKS
 
YUMA SUNNY 76 37 24 NW6 30.00F  

 
 
CAZ041-043-047-048-061-525>527-560>570-252300-  
SOUTHERN CALIFORNIA  
 
CITY SKY/WX TMP DP RH WIND PRES REMARKS
 
DOWNTOWN L.A. MOSUNNY 71 51 49 CALM 30.01F HAZE  
L.A. AIRPORT MOSUNNY 63 52 67 W10 30.03F HAZE  
SAN DIEGO MOSUNNY 63 55 75 VRB3 30.05S HAZE  
BURBANK MOSUNNY 72 43 35 SE7 30.00F  
ONTARIO PTSUNNY 76 37 24 W6 30.01S  
RIVERSIDE SUNNY 75 41 29 W8 30.01S  
PALM SPRINGS SUNNY 77 37 23 E8 30.03F  
EL CENTRO NAS MOSUNNY 77 31 18 VRB3 30.02F  
IMPERIAL SUNNY 76 36 23 CALM 30.00F  
BLYTHE SUNNY 73 34 23 VRB5 30.02F  
NEEDLES SUNNY 70 36 28 CALM 30.04F  

 
 
NVZ020-UTZ003-252300-  
SOUTHERN NEVADA-UTAH  
 
CITY SKY/WX TMP DP RH WIND PRES REMARKS
 
LAS VEGAS PTSUNNY 64 30 27 E6 30.10F  
SALT LAKE CITY PTSUNNY 47 39 74 N8 30.17S  

 
 
NMZ009-TXZ055-252300-  
NEW MEXICO-WEST TEXAS  
 
CITY SKY/WX TMP DP RH WIND PRES REMARKS
 
ALBUQUERQUE MOSUNNY 55 22 27 NW17G25 30.07F  
EL PASO MOSUNNY 67 25 20 N10 30.03F  

 
 
   
.......................KEY.....................
 
 
SKY/WX - SKY CONDITION/WEATHER  
TMP - TEMPERATURE IN FAHRENHEIT  
DP - DEW POINT IN FAHRENHEIT  
RH - RELATIVE HUMIDITY IN PERCENT  
WIND - DIRECTION AND SPEED IN MILES PER HOUR (MPH)  
VRB - VARIABLE WIND DIRECTION  
PRES - MEAN SEA LEVEL PRESSURE IN INCHES OF MERCURY  
F - FALLING PRESSURE R - RISING PRESSURE  
S - STEADY PRESSURE  
VSB - VISIBILITY IN MILES  
HX - HEAT INDEX IN FAHRENHEIT  
WCI - WIND CHILL INDEX IN FAHRENHEIT  
TC - TEMPERATURE IN CELSIUS WHICH IS ALSO KNOWN AS  
TEMPERATURE IN CENTIGRADE  
AFB - AIR FORCE BASE  
LUKE AFB IS LUKE AIR FORCE BASE  
DAVIS-MONTHAN IS DAVIS-MONTHAN AIR FORCE BASE  
NAS - NAVAL AIR STATION  
EL CENTRO NAS IS EL CENTRO NAVAL AIR STATION  
N/A - NOT AVAILABLE  
 
 
 
CLICK HERE TO GO TO PREVIOUS BULLETINS.

The Nexlab AZ Page Main Text Page